[[{"header":{"parameterUnit":"m.s-1","parameterCategory":1,"la1":30.2991,"la2":30.254,"lo1":-89.0895,"lo2":-89.0444,"dy":0.0017,"dx":0.0017,"nx":28,"ny":28,"refTime":"2024-05-25T21:00:00:Z","depth":0,"parameterNumber":2,"parameterNumberName":"U-component_of_WINDS"},"data":[0,0,0,0,0,0,0,0,0,0,0,0,0,0,0,0,0,0,0,0,0,0,0,0,0,0,0,0,0,0,0,0,0,0,0,0,0,0,0,0,0,0,0,0,0,0,0,0,0,0,0,0,0,0,0,0,0,0,-0.9097,-0.9096,0,-0.9012,-0.9011,-0.901,-0.8972,-0.8972,-0.8972,-0.8972,-0.8884,-0.8882,-0.8879,0,0,0,0,0,0,0,0,0,0,0,0,0,-0.9224,-0.9222,-0.9097,-0.9096,-0.9095,-0.9012,-0.9011,-0.901,-0.8972,-0.8972,-0.8972,-0.8972,-0.8885,-0.8882,-0.8879,0,0,0,0,0,0,0,0,0,0,0,0,0,-0.9157,-0.9221,-0.9097,-0.9066,-0.9062,-0.9013,-0.9011,-0.901,-0.8972,-0.8972,-0.8972,-0.8972,-0.8886,-0.8882,-0.8879,-0.8854,0,0,-0.8868,-0.8866,0,0,0,0,0,0,0,0,-0.9161,-0.9152,-0.9071,-0.9068,-0.9064,-0.9003,-0.9024,-0.8957,-0.8972,-0.9006,-0.8972,-0.8972,-0.8923,-0.8917,-0.8901,-0.8849,-0.8846,-0.8867,-0.8865,-0.8864,-0.8863,0,0,0,0,0,0,0,-0.9166,-0.9156,-0.9063,-0.907,-0.9065,-0.9056,-0.9046,-0.9011,-0.8965,-0.9003,-0.9,-0.8991,-0.8921,-0.8904,-0.8898,-0.8844,-0.8867,-0.8864,-0.8862,-0.8861,-0.8769,-0.8768,0,0,0,0,0,0,-0.9175,-0.916,-0.9066,-0.9061,-0.9114,-0.9053,-0.9043,-0.9022,-0.8965,-0.8957,-0.8991,-0.8989,-0.891,-0.8903,-0.8895,-0.8862,-0.8864,-0.886,-0.8858,-0.8769,-0.8769,-0.8768,0,0,0,0,0,0,-0.9178,-0.9167,-0.9069,-0.9109,-0.9096,-0.9051,-0.9028,-0.902,-0.9003,-0.8956,-0.8947,-0.8982,-0.891,-0.89,-0.8864,-0.8858,-0.8859,-0.8855,-0.8769,-0.8769,-0.8768,-0.8795,0,0,0,0,0,0,-0.9182,-0.9169,-0.9159,-0.911,-0.9094,-0.904,-0.9028,-0.9019,-0.8997,-0.8995,-0.8945,-0.8937,-0.8909,-0.887,-0.8861,-0.8853,-0.8852,-0.877,-0.8769,-0.8769,-0.8795,-0.8796,-0.8797,0,0,0,0,0,-0.9187,-0.9169,-0.9158,-0.9147,-0.9081,-0.904,-0.9031,-0.9,-0.8997,-0.8986,-0.8956,-0.8939,-0.8861,-0.8867,-0.8856,-0.8847,-0.877,-0.8769,-0.8769,-0.8794,-0.8796,-0.8797,0,0,0,0,0,0,-0.9218,-0.9162,-0.915,-0.9116,-0.9083,-0.9034,-0.902,-0.9003,-0.897,-0.8969,-0.8931,-0.892,-0.8888,-0.8864,-0.8872,-0.882,-0.8814,-0.8811,-0.8837,-0.8838,-0.8839,-0.8845,-0.8849,0,0,0,0,0,-0.9221,-0.9193,-0.9146,-0.912,-0.9105,-0.9065,-0.9046,-0.9025,-0.899,-0.8976,-0.8943,-0.8909,-0.8876,-0.8856,-0.8823,-0.8791,-0.878,-0.878,-0.8781,-0.8782,-0.878,-0.8761,-0.8761,-0.8766,-0.8766,-0.8766,0,0,-0.9227,-0.9193,-0.9177,-0.9126,-0.9098,-0.9069,-0.9054,-0.9024,-0.9002,-0.8971,-0.8935,-0.891,-0.8869,-0.8836,-0.8819,-0.8815,-0.8776,-0.8781,-0.8783,-0.878,-0.8761,-0.876,-0.876,-0.8766,-0.8766,-0.8766,0,0,-0.9223,-0.9195,-0.917,-0.9143,-0.9102,-0.9076,-0.907,-0.9024,-0.9006,-0.897,-0.8946,-0.8919,-0.8864,-0.8837,-0.8815,-0.8802,-0.8785,-0.8792,-0.8798,-0.878,-0.8779,-0.8779,-0.8774,-0.8773,-0.8791,-0.8791,-0.8791,0,-0.9235,-0.9192,-0.916,-0.9132,-0.911,-0.9081,-0.9056,-0.9031,-0.8981,-0.8966,-0.8962,-0.8894,-0.8864,-0.8823,-0.882,-0.8804,-0.8796,-0.8797,-0.8782,-0.8781,-0.878,-0.8775,-0.8773,-0.8792,-0.8792,-0.8792,-0.8791,0,-0.9209,-0.9179,-0.9164,-0.9118,-0.9094,-0.9068,-0.9032,-0.9012,-0.8993,-0.8968,-0.8932,-0.8896,-0.8856,-0.8844,-0.8826,-0.8801,-0.88,-0.879,-0.8782,-0.8782,-0.8776,-0.8774,-0.8794,-0.8793,-0.8793,-0.8793,0,0,-0.9221,-0.9158,-0.9153,-0.9132,-0.9084,-0.906,-0.9033,-0.8995,-0.8978,-0.8945,-0.8921,-0.8876,-0.8866,-0.8842,-0.882,-0.8805,-0.8796,-0.8796,-0.8795,-0.8797,-0.8767,-0.8775,-0.8773,-0.8785,-0.8785,-0.8784,-0.8771,0,-0.921,-0.916,-0.9131,-0.9093,-0.9065,-0.9038,-0.9014,-0.8982,-0.8958,-0.893,-0.8903,-0.8872,-0.8862,-0.8847,-0.8831,-0.8801,-0.879,-0.8802,-0.8762,-0.8761,-0.8772,-0.877,-0.8778,-0.8767,-0.8768,-0.8768,-0.8768,0,-0.9191,-0.9159,-0.9118,-0.9074,-0.9061,-0.904,-0.9003,-0.8978,-0.8941,-0.8925,-0.8898,-0.8877,-0.8846,-0.8843,-0.88,-0.8809,-0.8791,-0.8774,-0.8773,-0.8767,-0.8764,-0.8765,-0.8763,-0.8761,-0.8764,-0.8764,-0.8764,0,-0.9204,-0.915,-0.9119,-0.9102,-0.905,-0.9036,-0.9014,-0.8977,-0.8957,-0.8924,-0.891,-0.8874,-0.8855,-0.8827,-0.8796,-0.8796,-0.8757,-0.8751,-0.8742,-0.8743,-0.8735,-0.8735,-0.873,-0.8724,-0.8724,-0.8724,-0.8724,0,-0.9194,-0.917,-0.9124,-0.9105,-0.9077,-0.9045,-0.9018,-0.8994,-0.8962,-0.8937,-0.8911,-0.8889,-0.885,-0.8822,-0.8798,-0.8767,-0.8758,-0.8743,-0.8737,-0.8745,-0.8747,-0.8732,-0.8732,-0.8724,-0.8724,-0.8724,-0.8724,0,-0.9204,-0.9172,-0.9136,-0.909,-0.9078,-0.906,-0.9021,-0.9001,-0.8976,-0.8945,-0.8936,-0.8896,-0.8863,-0.8829,-0.8784,-0.8768,-0.8737,-0.8728,-0.8749,-0.8745,-0.8739,-0.874,-0.8723,-0.8719,-0.8717,-0.8717,-0.8717,0,-0.9199,-0.918,-0.9133,-0.9115,-0.9094,-0.9065,-0.9043,-0.9011,-0.899,-0.8947,-0.8933,-0.8897,-0.8867,-0.8815,-0.8781,-0.8747,-0.8737,-0.8734,-0.8731,-0.8741,-0.8737,-0.8738,-0.8736,-0.8734,-0.8735,-0.8735,-0.8735,0,-0.9195,-0.9181,-0.9151,-0.9117,-0.9092,-0.9063,-0.9033,-0.902,-0.8981,-0.8958,-0.8924,-0.8901,-0.8855,-0.882,-0.8782,-0.8758,-0.874,-0.8736,-0.8732,-0.874,-0.8753,-0.8746,-0.8751,-0.8736,-0.8736,-0.8736,-0.8736,-0.8736,-0.9197,-0.918,-0.9144,-0.9112,-0.9086,-0.9059,-0.9038,-0.9011,-0.8982,-0.8942,-0.8925,-0.889,-0.8855,-0.8801,-0.8778,-0.8751,-0.8746,-0.874,-0.8739,-0.8738,-0.874,-0.8758,-0.8743,-0.8743,-0.8743,-0.8743,-0.8743,0,-0.9192,-0.9168,-0.9139,-0.9098,-0.9073,-0.9059,-0.9025,-0.9005,-0.8975,-0.8944,-0.8915,-0.8876,-0.8842,-0.8807,-0.8771,-0.8756,-0.8747,-0.8748,-0.8748,-0.8743,-0.8746,-0.8753,-0.8756,-0.8756,-0.8756,-0.8756,-0.8756,-0.8756,-0.9186,-0.9155,-0.9136,-0.9092,-0.9068,-0.9035,-0.9016,-0.8991,-0.8966,-0.8924,-0.8896,-0.8873,-0.884,-0.8802,-0.8771,-0.8761,-0.8749,-0.8752,-0.874,-0.8744,-0.8743,-0.8742,-0.8748,-0.875,-0.875,-0.874,-0.8739,-0.8739]},{"header":{"parameterUnit":"m.s-1","parameterCategory":1,"la1":30.2991,"la2":30.254,"lo1":-89.0895,"lo2":-89.0444,"dy":0.0017,"dx":0.0017,"nx":28,"ny":28,"refTime":"2024-05-25T21:00:00:Z","depth":0,"parameterNumber":3,"parameterNumberName":"V-component_of_WINDS"},"data":[0,0,0,0,0,0,0,0,0,0,0,0,0,0,0,0,0,0,0,0,0,0,0,0,0,0,0,0,0,0,0,0,0,0,0,0,0,0,0,0,0,0,0,0,0,0,0,0,0,0,0,0,0,0,0,0,0,0,6.0406,6.0406,0,6.0418,6.0418,6.0419,6.0344,6.0342,6.034,6.0338,6.0348,6.035,6.0352,0,0,0,0,0,0,0,0,0,0,0,0,0,6.0316,6.0318,6.0406,6.0406,6.0406,6.0418,6.0418,6.0419,6.0345,6.0342,6.034,6.0337,6.0347,6.035,6.0353,0,0,0,0,0,0,0,0,0,0,0,0,0,6.0344,6.0319,6.0406,6.0371,6.0368,6.0418,6.0418,6.0419,6.0345,6.0342,6.0339,6.0336,6.0346,6.035,6.0353,6.0437,0,0,6.0363,6.0365,0,0,0,0,0,0,0,0,6.0343,6.0348,6.0376,6.0373,6.037,6.0377,6.039,6.0425,6.0346,6.0354,6.0338,6.0334,6.036,6.0362,6.0371,6.0437,6.0437,6.0363,6.0365,6.0367,6.0368,0,0,0,0,0,0,0,6.0341,6.0347,6.0411,6.0376,6.0373,6.0354,6.0354,6.0396,6.0374,6.0353,6.0348,6.035,6.0358,6.0368,6.0371,6.0438,6.0363,6.0366,6.0368,6.037,6.0573,6.0576,0,0,0,0,0,0,6.0344,6.0346,6.041,6.0411,6.0349,6.0358,6.0359,6.0378,6.0374,6.037,6.0353,6.0347,6.0364,6.0367,6.0371,6.0468,6.0367,6.037,6.0372,6.057,6.0574,6.0578,0,0,0,0,0,0,6.0343,6.0351,6.041,6.0377,6.0383,6.0363,6.0385,6.038,6.039,6.0374,6.0369,6.0368,6.0362,6.0366,6.0421,6.0468,6.0372,6.0375,6.0566,6.0571,6.0576,6.0665,0,0,0,0,0,0,6.034,6.035,6.0383,6.0378,6.0385,6.0461,6.0388,6.0382,6.0396,6.0388,6.0386,6.0383,6.0359,6.0417,6.0424,6.0471,6.0377,6.0561,6.0568,6.0574,6.0658,6.0672,6.0685,0,0,0,0,0,6.0337,6.0406,6.0385,6.0393,6.0425,6.0464,6.0467,6.044,6.04,6.0432,6.0422,6.0383,6.0462,6.0423,6.0431,6.0479,6.0558,6.0566,6.0574,6.0651,6.0669,6.0685,0,0,0,0,0,0,6.0415,6.0405,6.0381,6.0451,6.0459,6.0451,6.049,6.046,6.0478,6.047,6.0434,6.0434,6.0495,6.0492,6.0449,6.056,6.0503,6.0513,6.0559,6.0576,6.059,6.0589,6.038,0,0,0,0,0,6.0441,6.0474,6.0463,6.0526,6.0531,6.0511,6.0526,6.0504,6.0511,6.0513,6.0507,6.0514,6.054,6.0558,6.0581,6.0657,6.0655,6.0694,6.0708,6.0719,6.0728,6.0768,6.0785,6.0603,6.0603,6.0603,0,0,6.0493,6.0492,6.0515,6.0542,6.0545,6.058,6.0514,6.0552,6.0577,6.0519,6.0571,6.0567,6.0572,6.0638,6.0666,6.0637,6.0778,6.0729,6.0738,6.074,6.0777,6.0795,6.081,6.0608,6.0607,6.0606,0,0,6.0607,6.061,6.0662,6.0668,6.0675,6.066,6.0673,6.0671,6.0666,6.0718,6.0675,6.0703,6.0749,6.0755,6.0764,6.0881,6.0847,6.089,6.0961,6.1001,6.1015,6.1027,6.1069,6.1085,6.0899,6.0899,6.0899,0,6.0671,6.0722,6.0693,6.0736,6.0748,6.0698,6.0751,6.0757,6.0771,6.0781,6.0749,6.0806,6.0806,6.0873,6.0901,6.091,6.0924,6.089,6.1015,6.1028,6.1039,6.1078,6.1094,6.0904,6.0904,6.0903,6.0903,0,6.0801,6.0837,6.0879,6.0895,6.0912,6.096,6.0937,6.0958,6.0935,6.0925,6.0978,6.0977,6.0999,6.1013,6.099,6.1077,6.1059,6.1022,6.0964,6.1062,6.1098,6.1113,6.0912,6.091,6.0908,6.0907,0,0,6.0963,6.0963,6.0979,6.0986,6.099,6.1017,6.1062,6.1085,6.1104,6.1116,6.1152,6.1193,6.1159,6.1169,6.1147,6.1182,6.1275,6.114,6.114,6.1165,6.137,6.1398,6.1415,6.1252,6.1255,6.1257,6.1369,0,6.1073,6.1152,6.1127,6.1206,6.1239,6.1192,6.1231,6.1238,6.123,6.1256,6.1246,6.1275,6.1228,6.1234,6.1267,6.1257,6.1315,6.1248,6.1285,6.1287,6.1285,6.1434,6.1463,6.1569,6.1383,6.1386,6.1387,0,6.1213,6.1232,6.1314,6.1314,6.1326,6.1362,6.1382,6.1408,6.1414,6.1405,6.1418,6.1389,6.1432,6.1375,6.1435,6.139,6.1404,6.1401,6.1405,6.1406,6.1343,6.144,6.1602,6.1618,6.141,6.1408,6.1406,0,6.1323,6.1368,6.1423,6.1431,6.1432,6.1458,6.146,6.1463,6.1479,6.1496,6.1505,6.1527,6.1538,6.1555,6.1532,6.1493,6.1595,6.1536,6.1589,6.159,6.1612,6.1611,6.1778,6.1622,6.1622,6.1621,6.1621,0,6.1449,6.1501,6.1473,6.1507,6.1564,6.1535,6.1592,6.1588,6.1592,6.1624,6.1585,6.1615,6.1583,6.1611,6.1593,6.1645,6.1651,6.1645,6.1639,6.1648,6.1649,6.1656,6.1648,6.1625,6.1625,6.1624,6.1623,0,6.158,6.1564,6.1621,6.1618,6.1618,6.166,6.1657,6.1688,6.1677,6.1718,6.1726,6.1709,6.1739,6.1719,6.1749,6.1737,6.1805,6.1789,6.1803,6.1799,6.1852,6.1848,6.203,6.2053,6.1882,6.1884,6.1885,0,6.1661,6.1701,6.1703,6.1722,6.1726,6.1757,6.1774,6.1747,6.1765,6.1777,6.1806,6.1834,6.1854,6.1905,6.1894,6.1917,6.1902,6.1964,6.1905,6.1913,6.1902,6.19,6.1904,6.1976,6.1978,6.198,6.1981,0,6.1807,6.1798,6.1823,6.1846,6.1867,6.1884,6.1897,6.1914,6.1888,6.191,6.1942,6.1958,6.1989,6.2017,6.2036,6.2036,6.2005,6.2,6.2013,6.2022,6.2029,6.2026,6.1835,6.1996,6.1994,6.1993,6.1992,6.1992,6.1916,6.1949,6.1956,6.1986,6.1993,6.2007,6.2036,6.2029,6.2055,6.208,6.2062,6.21,6.2105,6.2128,6.2133,6.2161,6.2136,6.2155,6.216,6.2165,6.2172,6.2025,6.2165,6.2164,6.2164,6.2163,6.2163,0,6.206,6.2062,6.209,6.2111,6.2134,6.2103,6.2117,6.2138,6.2172,6.2181,6.2202,6.2238,6.2265,6.2258,6.2281,6.2305,6.2291,6.2313,6.231,6.2311,6.2194,6.218,6.2324,6.2324,6.2324,6.2324,6.2324,6.2323,6.2137,6.2192,6.2183,6.224,6.2242,6.2279,6.229,6.2302,6.2309,6.2351,6.2374,6.2369,6.2371,6.2395,6.2418,6.2415,6.2426,6.2452,6.2444,6.2335,6.2319,6.2304,6.2291,6.2455,6.2455,6.2558,6.2559,6.256]}]]